This is the latest recevied weather packets stored in our database for station/object K5NAN. If no packets are shown the sender has not sent any weather packets the latest 10 day(s).
| Time | Temp. | Humidity | Pressure | Rain* | Wind** | Luminosity | Snow |
|---|---|---|---|---|---|---|---|
| 1777419807 | 25° C | 89% | 1008.2 hPa | 0 mm | - | 126 W/m² | - |
| 1777419505 | 24.44° C | 90% | 1008.1 hPa | 0 mm | - | 133 W/m² | - |
| 1777419204 | 24.44° C | 90% | 1008.4 hPa | 0 mm | - | 103 W/m² | - |
| 1777418900 | 24.44° C | 90% | 1006.3 hPa | 0 mm | - | 79 W/m² | - |
| 1777418596 | 24.44° C | 90% | 1006.9 hPa | 0 mm | - | 47 W/m² | - |
| 1777418292 | 24.44° C | 90% | 1006.9 hPa | 0 mm | - | 31 W/m² | - |
| 1777417988 | 23.89° C | 90% | 1008 hPa | 0 mm | - | 21 W/m² | - |
| 1777417684 | 23.89° C | 90% | 1007.9 hPa | 0 mm | - | 12 W/m² | - |
| 1777417379 | 23.89° C | 90% | 1007.6 hPa | 0 mm | - | 10 W/m² | - |
| 1777417076 | 24.44° C | 90% | 1007.5 hPa | 0 mm | - | 10 W/m² | - |
| 1777416772 | 24.44° C | 89% | 1007.8 hPa | 0 mm | - | 9 W/m² | - |
| 1777416468 | 24.44° C | 89% | 1008 hPa | 0 mm | - | 9 W/m² | - |
| 1777416164 | 24.44° C | 89% | 1007.9 hPa | 0 mm | - | 8 W/m² | - |
| 1777415864 | 24.44° C | 89% | 1007.9 hPa | 0 mm | - | 8 W/m² | - |
| 1777415560 | 24.44° C | 89% | 1008.3 hPa | 0 mm | - | 8 W/m² | - |
| 1777415256 | 24.44° C | 89% | 1007.9 hPa | 0 mm | - | 9 W/m² | - |
| 1777414951 | 24.44° C | 88% | 1008.2 hPa | 0 mm | - | 9 W/m² | - |
| 1777414650 | 24.44° C | 88% | 1008.6 hPa | 0 mm | - | 10 W/m² | - |
| 1777414346 | 24.44° C | 88% | 1009 hPa | 0 mm | - | 10 W/m² | - |
| 1777414040 | 25° C | 88% | 1009.3 hPa | 0 mm | - | 8 W/m² | - |
| 1777413735 | 25° C | 87% | 1009.5 hPa | 0 mm | - | 9 W/m² | - |
| 1777413431 | 25° C | 88% | 1009.7 hPa | 0 mm | - | 9 W/m² | - |
| 1777413128 | 25° C | 88% | 1009.5 hPa | 0 mm | - | 12 W/m² | - |
| 1777412823 | 25° C | 87% | 1009.4 hPa | 0 mm | - | 16 W/m² | - |
| 1777412521 | 25° C | 88% | 1009.1 hPa | 0 mm | - | 17 W/m² | - |
* Rain latest hour (hover to see other rain measurements)
** Current wind speed in m/s (hover to see current wind gust speed)